Cape Girardeau, MO

7:39 PM CDT on August 17, 2019 (GMT -0500)
Cape Girardeau Regional

Weather History for KCGI - May, 2019

Change the Weather History Date:

Friday, May 24, 2019

  Actual Average Record
Temperature  
Mean Temperature 78 °F 69 °F  
Max Temperature 90 °F 80 °F 97 °F (1996)
Min Temperature 66 °F 58 °F 44 °F (1961)
Degree Days  
Heating Degree Days 0    
Month to date heating degree days 53  
Since 1 July heating degree days 4208  
Cooling Degree Days 13    
Month to date cooling degree days 104  
Year to date cooling degree days 129  
Growing Degree Days 28 (Base 50)    
Moisture  
Dew Point 67 °F    
Average Humidity 69    
Maximum Humidity 93    
Minimum Humidity 44    
Precipitation  
Precipitation 0.00 in 0.16 in 1.23 in (1991)
Month to date precipitation 7.39 4.42  
Year to date precipitation 28.21 20.06  
Sea Level Pressure  
Sea Level Pressure 30.05 in    
Wind  
Wind Speed 6 mph (SSW)    
Max Wind Speed 20 mph    
Max Gust Speed 26 mph    
Visibility 10 miles    
Events      
T = Trace of Precipitation, MM = Missing Value Source: NWS Daily Summary

Daily Weather History Graph

Daily Weather History Graph

Search for Another Location

Airport or City:

Astronomy

May. 24, 2019 Rise Set
Actual Time 5:43 AM CDT 8:07 PM CDT
Civil Twilight 5:13 AM CDT 8:37 PM CDT
Nautical Twilight 4:36 AM CDT 9:13 PM CDT
Astronomical Twilight 3:56 AM CDT 9:54 PM CDT
Moon 12:32 AM CDT (5/24) 10:43 AM CDT (5/24)
Length of Visible Light 15h 23m
Length of Day
14h 23m
Waning Gibbous, 68% of the Moon is Illuminated
May 24
Waning Gibbous
May 26
Last Quarter
Jun 3
New
Jun 10
First Quarter
Jun 17
Full

Hourly Weather History & Observations

Time (CDT) Temp. Heat Index Dew Point Humidity Pressure Visibility Wind Dir Wind Speed Gust Speed Precip Events Conditions
12:53 AM 71.1 °F - 66.9 °F 87% 30.06 in 10.0 mi Calm Calm - N/A   Clear
1:53 AM 72.0 °F - 68.0 °F 87% 30.05 in 10.0 mi Calm Calm - N/A   Clear
2:53 AM 70.0 °F - 66.9 °F 90% 30.04 in 10.0 mi Calm Calm - N/A   Clear
3:53 AM 70.0 °F - 66.0 °F 87% 30.05 in 10.0 mi Calm Calm - N/A   Clear
4:53 AM 66.9 °F - 64.9 °F 93% 30.06 in 10.0 mi Calm Calm - N/A   Clear
5:53 AM 66.0 °F - 64.0 °F 93% 30.08 in 10.0 mi Calm Calm - N/A   Clear
6:53 AM 70.0 °F - 66.9 °F 90% 30.10 in 10.0 mi Calm Calm - N/A   Clear
7:53 AM 75.0 °F - 68.0 °F 79% 30.11 in 10.0 mi Calm Calm - N/A   Clear
8:53 AM 79.0 °F - 68.0 °F 69% 30.11 in 10.0 mi SSW 5.8 mph - N/A   Clear
9:53 AM 82.0 °F 84.9 °F 68.0 °F 62% 30.11 in 10.0 mi WSW 9.2 mph 16.1 mph N/A   Clear
10:53 AM 84.0 °F 87.8 °F 69.1 °F 61% 30.10 in 10.0 mi SSW 8.1 mph - N/A   Clear
11:53 AM 86.0 °F 90.7 °F 70.0 °F 59% 30.10 in 10.0 mi SW 13.8 mph 20.7 mph N/A   Clear
12:53 PM 87.1 °F 91.3 °F 69.1 °F 55% 30.09 in 10.0 mi SSW 13.8 mph 25.3 mph N/A   Clear
1:53 PM 88.0 °F 90.7 °F 66.9 °F 49% 30.08 in 10.0 mi WSW 17.3 mph 25.3 mph N/A   Clear
2:53 PM 89.1 °F 91.3 °F 66.0 °F 46% 30.06 in 10.0 mi SSW 15.0 mph 21.9 mph N/A   Clear
3:53 PM 89.1 °F 91.3 °F 66.0 °F 46% 30.03 in 10.0 mi SW 15.0 mph 21.9 mph N/A   Clear
4:53 PM 89.1 °F 91.0 °F 64.9 °F 45% 30.01 in 10.0 mi SW 11.5 mph - N/A   Clear
5:53 PM 88.0 °F 90.7 °F 66.9 °F 49% 30.00 in 10.0 mi SSW 8.1 mph - N/A   Clear
6:53 PM 86.0 °F 89.4 °F 68.0 °F 55% 29.97 in 10.0 mi SSW 8.1 mph - N/A   Clear
7:53 PM 82.0 °F 84.1 °F 66.0 °F 58% 29.96 in 10.0 mi South 6.9 mph - N/A   Clear
8:53 PM 80.1 °F 82.3 °F 66.9 °F 64% 29.96 in 10.0 mi South 6.9 mph - N/A   Clear
9:53 PM 77.0 °F - 66.9 °F 71% 29.99 in 10.0 mi South 4.6 mph - N/A   Clear
10:53 PM 75.0 °F - 66.9 °F 76% 30.02 in 10.0 mi SSE 5.8 mph - N/A   Partly Cloudy
11:53 PM 73.9 °F - 68.0 °F 82% 30.04 in 10.0 mi Calm Calm - N/A   Clear